Simultaneous Nadir Overpasses (SNOs) Predictions

Prediction of SNOs between METOP-B and NOAA-19 Satellite Orbit:

Table of predicted SNOs for the next 14.0 days since TLE Epoch: 8/21/2015
Index Date (METOP-B) Time (METOP-B) Lat,Lon (METOP-B) SZA (METOP-B ) Date (NOAA-19) Time (NOAA-19) Lat,Lon (NOAA-19) SZA (NOAA-19 ) Distance(km) Time Diff (sec)
1 08/24/2015 05:03:44 75.52, 103.09 64.23 08/24/2015 05:02:35 75.52, 100.87 64.28 61.53 69
2 08/24/2015 05:54:34 -75.14, -90.72 116.12 08/24/2015 05:53:33 -75.16, -90.75 116.10 2.30 61
3 08/24/2015 06:45:14 75.12, 76.55 63.87 08/24/2015 06:44:29 75.13, 76.61 63.88 2.23 45
4 08/24/2015 07:35:56 -75.12,-116.11 116.12 08/24/2015 07:35:35 -75.14,-116.18 116.10 2.42 21
5 08/24/2015 08:26:36 75.10, 51.15 63.87 08/24/2015 08:26:31 75.10, 51.18 63.88 1.03 5
6 08/24/2015 09:17:18 -75.10,-141.51 116.11 08/24/2015 09:17:37 -75.11,-141.61 116.11 3.07 19
7 08/24/2015 10:07:58 75.08, 25.76 63.88 08/24/2015 10:08:33 75.08, 25.75 63.88 0.23 35
8 08/24/2015 10:58:41 -75.04,-167.04 116.15 08/24/2015 10:59:38 -75.04,-166.90 116.16 3.96 57
9 08/24/2015 11:49:21 75.01, 0.22 63.84 08/24/2015 11:50:35 75.05, 0.32 63.88 5.39 74
10 09/03/2015 17:37:01 -75.43, 94.48 112.13 09/03/2015 17:35:50 -75.45, 92.97 112.09 42.61 71
11 09/03/2015 18:27:45 75.21, -98.83 67.67 09/03/2015 18:26:42 75.20, -98.96 67.66 3.70 63
12 09/03/2015 19:18:28 -75.17, 68.38 112.36 09/03/2015 19:17:46 -75.15, 68.40 112.37 1.87 42
13 09/03/2015 20:09:08 75.14,-124.37 67.63 09/03/2015 20:08:44 75.17,-124.39 67.66 3.63 24
14 09/03/2015 20:59:49 -75.15, 42.98 112.35 09/03/2015 20:59:47 -75.13, 42.97 112.37 2.27 2
15 09/03/2015 21:50:29 75.12,-149.77 67.64 09/03/2015 21:50:44 75.10,-149.68 67.62 3.28 15
16 09/03/2015 22:41:11 -75.13, 17.59 112.35 09/03/2015 22:41:49 -75.10, 17.53 112.37 3.12 38
17 09/03/2015 23:31:51 75.10,-175.17 67.64 09/03/2015 23:32:46 75.08,-175.12 67.62 3.06 55
18 09/04/2015 00:22:36 -74.97, -8.22 112.48 09/04/2015 00:23:49 -74.99, -7.62 112.47 17.48 73




NCC Satellite Simultaneous Nadir Overpasses (SNOs) Prediction Service
